Home > Weather > Orléans > Past weeks

Flag for France Past Weather in Orléans, Centre-Val de Loire, France — Yesterday and Last 2 Weeks

Now
70 °F

Partly sunny.


Feels Like: 70 °F
Forecast: 58 / 71 °F
Wind: 13 mph from Southwest

Location: Orleans Airport

Current Time: Jun 27, 2016 at 5:04:11 PM

Latest Report: Jun 27, 2016 at 4:30 PM


Visibility: N/A

Pressure: 30.15 "Hg

Humidity: 69%

Dew Point: 59 °F

Location of OrléansLocation

Past Weather in Orléans — Graph

°F

Orléans Temperature Yesterday

Maximum temperature yesterday: 70 °F (at 3:00 PM)
Minimum temperature yesterday: 50 °F (at 5:30 AM)
Average temperature yesterday: 61 °F

High & Low Weather Summary for the Past Weeks

 TemperatureHumidityPressure
High90 °F (Jun 23, 5:00 PM)100% (Jun 14, 12:30 AM)30.33 "Hg (Jun 14, 12:30 AM)
Low50 °F (Jun 19, 4:00 AM)40% (Jun 25, 3:30 PM)29.47 "Hg (Jun 15, 4:30 AM)
Average63 °F82%29.96 "Hg
* Reported Jun 12 4:00 PM — Jun 27 4:00 PM, Orléans, Weather by CustomWeather, © 2016

Note: Actual official high and low records may vary slightly from our data, if they occured in-between our weather recording intervals... More about our weather records

Advertising

Orléans Weather History for the Previous 24 Hours

Scroll right to see more
 ConditionsComfort  
Time TempWeatherWind HumidityBarometerVisibility
4:00 PM
Mon, Jun 27
68 °FBroken clouds.13 mph73%30.15 "HgN/A
3:30 PM68 °FDrizzle. Cloudy.10 mph78%30.15 "HgN/A
3:00 PM68 °FMore clouds than sun.13 mph73%30.15 "HgN/A
2:30 PM70 °FPartly sunny.14 mph69%30.15 "HgN/A
2:00 PM66 °FBroken clouds.10 mph78%30.18 "HgN/A
1:30 PM64 °FOvercast.14 mph78%30.18 "HgN/A
1:00 PM64 °FOvercast.13 mph78%30.18 "HgN/A
12:30 PM64 °FOvercast.13 mph78%30.18 "HgN/A
12:00 PM64 °FOvercast.13 mph78%30.18 "HgN/A
11:30 AM63 °FOvercast.13 mph83%30.18 "HgN/A
11:00 AM63 °FOvercast.12 mph83%30.18 "HgN/A
10:30 AM63 °FMostly cloudy.13 mph77%30.18 "HgN/A
10:00 AM63 °FMostly cloudy.13 mph77%30.18 "HgN/A
9:30 AM63 °FMostly cloudy.13 mph77%30.18 "HgN/A
9:00 AM61 °FMostly cloudy.7 mph83%30.18 "HgN/A
8:30 AM61 °FOvercast.8 mph83%30.18 "HgN/A
8:00 AM61 °FMostly cloudy.8 mph83%30.18 "HgN/A
7:30 AM59 °FSunny.8 mph88%30.15 "Hg10 mi
7:00 AM59 °FSunny.7 mph88%30.18 "Hg10 mi
6:30 AM59 °FClear.6 mph88%30.15 "Hg10 mi
6:00 AM57 °FClear.5 mph88%30.15 "Hg10 mi
5:30 AM57 °FClear.5 mph88%30.18 "Hg10 mi
5:00 AM59 °FClear.6 mph82%30.18 "Hg10 mi
4:30 AM59 °FClear.5 mph82%30.15 "Hg10 mi
4:00 AM59 °FClear.3 mph77%30.18 "Hg10 mi
3:30 AM57 °FClear.5 mph82%30.18 "Hg10 mi
3:00 AM57 °FClear.5 mph82%30.15 "Hg10 mi
2:30 AM57 °FClear.5 mph82%30.18 "Hg10 mi
2:00 AM57 °FClear.2 mph82%30.18 "Hg10 mi
1:30 AM57 °FClear.1 mph82%30.18 "Hg10 mi
1:00 AM57 °FClear.6 mph82%30.18 "Hg10 mi
12:30 AM59 °FClear.5 mph82%30.18 "Hg10 mi
12:00 AM59 °FClear.5 mph82%30.18 "Hg10 mi
11:30 PM
Sun, Jun 26
61 °FClear.6 mph77%30.18 "Hg10 mi
11:00 PM61 °FClear.3 mph77%30.18 "Hg10 mi
10:30 PM61 °FSunny.6 mph77%30.18 "Hg10 mi
10:00 PM63 °FSunny.5 mph73%30.15 "Hg10 mi
9:30 PM64 °FPartly sunny.6 mph68%30.15 "HgN/A
9:00 PM64 °FSunny.8 mph68%30.15 "Hg10 mi
8:30 PM66 °FScattered clouds.9 mph60%30.15 "HgN/A
8:00 PM68 °FPassing clouds.12 mph56%30.15 "HgN/A
7:30 PM68 °FScattered clouds.13 mph56%30.15 "HgN/A
7:00 PM70 °FScattered clouds.12 mph50%30.15 "HgN/A
6:30 PM68 °FPartly sunny.12 mph53%30.15 "HgN/A
6:00 PM68 °FBroken clouds.12 mph53%30.15 "HgN/A
5:30 PM70 °FPartly sunny.13 mph50%30.15 "HgN/A
5:00 PM68 °FOvercast.12 mph53%30.15 "HgN/A
Weather by CustomWeather, © 2016

See weather overviewHow to use our weather pages